User: anonymous   Login
Location: Aranbee
(34.0885°N, 118.2342°W)
Time: 22:13:58
(UTC+00:00)
Language:

S-56A Canister/Altair - Orbit

View from above orbital plane
View from above orbital plane
View from above satellite
View from above satellite

Ground track
Ground track

The orbit data is extracted from the following two-line orbital elements,

1 00082U 61004B   21126.93282462 -.00000091  00000-0 -45822-4 0  9996
2 00082  38.8600  80.5692 1176133 204.8436 149.0893 12.26038359847514
Epoch (UTC): 06 May 2021 22:23:16
Eccentricity: 0.1176133
inclination: 38.8600°
perigee height: 632 km
apogee height: 2501 km
right ascension of ascending node: 80.5692°
argument of perigee: 204.8436°
revolutions per day: 12.26038359
mean anomaly at epoch: 149.0893°
orbit number at epoch: 84751

The dashed part of the orbit path shows where the satellite is in the earth's shadow,  

DLR